STARLINK-4006, 52676

Orbit data source: Space-Track

STARLINK-4006, 52676 is a payload satellite owned by SpaceX/Seattle (US) in LEO that was launched on Wed, 18 May 2022 UTC via an FALCON 9 launch vehicle from the Air Force Eastern Test Range (AFETR). Payload-class satellites include a variety of spacecraft equipped with specific instruments for various scientific and technological missions. These include communications satellites like Starlink; space stations such as the ISS; scientific satellites like the Hubble; Earth observation satellites from companies like Planet Labs, Umbra, and HawkEye 360; GPS; miniature CubeSats for education and research; and military/defense satellites.

Loading next visibility...
Identifier
52676, 2022-053W
Orbit
LEO
Country
Flag of USUS
Related business
Manufacturer
SpaceX/Seattle
Mission
Operational Commercial Communications
Bus & Motor
STARLINK, Unknown motor
Mass
297 kg wet, ~275 kg dry
Launch date (UTC)
2022-05-18 (4 years ago)
Launch vehicle
FALCON 9
Launch site
Air Force Eastern Test Range (AFETR)
Object type
Payload
Rocket body
Debris
Shape & HBR
Box + 1 Pan, 10.1 m
Radar Cross Section
13.562 m², Large (>1 m²)

Expand to show TLE details & history
Last TLE update: 2 days ago

TLE from 2 days ago
0 STARLINK-4006
1 52676U 22053W   26171.37806172  .00000231  00000-0  32596-4 0  9994
2 52676  53.1596  53.0201 0001351  90.2600 269.8546 15.08828211226540
Epoch: 2026-06-20T09:04Z
TLE epoch observation values (Epoch: 2026-06-20T09:04:24.532Z)
Latitude
-0.00005°
Longitude
8.3243°
Altitude
540.673 km
Speed
7.593 km/s
True Right ascension
03h 32m 04s
True Declination
0° 00' 00"
Sunlit
Object was in daylight at epoch
Visualization orbit readout
Latitude
Unknown
Longitude
Unknown
Altitude
Unknown
Speed
Unknown
Apparent Right ascension
Unknown
Apparent Declination
Unknown
Sunlit
N/A
Visualization observer readout
Local Sidereal Time
23:07:20
Azimuth
Unknown
Elevation
Unknown
Doppler factor
Unknown
Orbital elements
Apogee altitude
540.968 km
Perigee altitude
539.099 km
Semi-major axis
6,918.171 km
Eccentricity
0.00014
Inclination
53.1596°
RAAN
53.0201°
Arg. of periapsis
90.26°
True anomaly
269.83912°
Mean anomaly
269.8546°
Eccentric anomaly
269.84686°
Mean motion
3.77187 °/min
Orbital period
95.44 mins
BSTAR
0.000032596
Loading maneuver chart data...
Computing Atmospheric mass density...

Documentation

Showing up to 5 results
|